GW3780 Weather Reports


Display with metric or nautical units.
time (UTC)temp
F
wind
direction
speed
MPH
gust
MPH
rain 1hr
in
rain 24hr
in
rain mn
in
humidity
%
barometer
mb
20260831022557 78 333 0.0 1.0 0.00 0.00 0.00 83 1021.1
20260831022052 78 329 1.0 1.0 0.00 0.00 0.00 83 1021.2
20260831021551 78 317 1.0 2.0 0.00 0.00 0.00 83 1021.3
20260831021047 78 329 0.0 1.0 0.00 0.00 0.00 83 1021.2
20260831020542 78 343 0.0 1.0 0.00 0.00 0.00 83 1021.2
20260831020037 78 333 0.0 1.0 0.00 0.00 0.00 83 1021.1
20260831015533 78 332 0.0 1.0 0.00 0.00 0.00 83 1021.0
20260831015027 79 343 0.0 1.0 0.00 0.00 0.00 82 1021.2
20260831014522 79 343 0.0 1.0 0.00 0.00 0.00 82 1021.1
20260831014018 78 339 0.0 1.0 0.00 0.00 0.00 82 1021.1
20260831013514 78 330 1.0 1.0 0.00 0.00 0.00 82 1021.2
20260831013014 79 343 0.0 0.0 0.00 0.00 0.00 82 1021.0
20260831012508 79 329 0.0 1.0 0.00 0.00 0.00 82 1021.3
20260831012003 79 304 0.0 0.0 0.00 0.00 0.00 82 1021.3
20260831011457 79 304 0.0 0.0 0.00 0.00 0.00 82 1021.1
20260831010953 79 322 0.0 1.0 0.00 0.00 0.00 82 1021.2
20260831010447 79 343 0.0 1.0 0.00 0.00 0.00 82 1021.2
20260831005943 79 326 0.0 1.0 0.00 0.00 0.00 81 1021.2
20260831005438 79 313 0.0 0.0 0.00 0.00 0.00 81 1021.1
20260831004938 79 315 0.0 1.0 0.00 0.00 0.00 81 1021.1
20260831004434 79 333 0.0 0.0 0.00 0.00 0.00 80 1020.9
20260831003930 79 343 0.0 1.0 0.00 0.00 0.00 79 1020.7
20260831003426 79 318 1.0 1.0 0.00 0.00 0.00 79 1020.4
20260831002925 80 326 0.0 1.0 0.00 0.00 0.00 79 1020.4
20260831002424 80 316 0.0 2.0 0.00 0.00 0.00 79 1020.4
20260831001920 80 322 0.0 1.0 0.00 0.00 0.00 79 1020.4
20260831001415 80 326 0.0 0.0 0.00 0.00 0.00 78 1020.3
20260831000912 81 303 1.0 1.0 0.00 0.00 0.00 78 1020.2
20260831000410 81 315 0.0 2.0 0.00 0.00 0.00 78 1020.2
20260830235906 81 302 0.0 1.0 0.00 0.00 0.00 76 1020.2
20260830235400 82 298 1.0 2.0 0.00 0.00 0.00 76 1020.2
20260830234856 82 310 1.0 2.0 0.00 0.00 0.00 76 1020.3
20260830234351 82 316 0.0 1.0 0.00 0.00 0.00 75 1020.3
20260830233847 82 312 1.0 1.0 0.00 0.00 0.00 75 1020.4
20260830233343 83 333 0.0 1.0 0.00 0.00 0.00 74 1020.4
20260830232838 83 319 0.0 0.0 0.00 0.00 0.00 73 1020.6
20260830232333 83 343 0.0 1.0 0.00 0.00 0.00 73 1020.3
20260830231830 84 0 0.0 1.0 0.00 0.00 0.00 72 1020.4
20260830231325 84 343 0.0 1.0 0.00 0.00 0.00 71 1020.8
20260830230824 84 326 0.0 1.0 0.00 0.00 0.00 71 1020.4
20260830230319 85 248 0.0 2.0 0.00 0.00 0.00 69 1020.3
20260830225814 85 314 0.0 2.0 0.00 0.00 0.00 70 1020.2
20260830225309 85 318 0.0 2.0 0.00 0.00 0.00 70 1020.5
20260830224808 85 240 0.0 2.0 0.00 0.00 0.00 67 1020.3
20260830224302 85 243 0.0 1.0 0.00 0.00 0.00 67 1020.4
20260830223759 86 319 1.0 2.0 0.00 0.00 0.00 68 1020.4
20260830223256 86 240 0.0 2.0 0.00 0.00 0.00 67 1020.3
20260830222749 86 282 1.0 2.0 0.00 0.00 0.00 67 1020.4
20260830222246 86 262 0.0 2.0 0.00 0.00 0.00 66 1020.2
20260830221740 86 247 1.0 2.0 0.00 0.00 0.00 66 1020.3
20260830221238 86 233 2.0 2.0 0.00 0.00 0.00 65 1020.1
20260830220732 86 300 1.0 2.0 0.00 0.00 0.00 67 1020.3
20260830220231 86 262 2.0 2.0 0.00 0.00 0.00 66 1020.3
20260830215730 86 244 1.0 2.0 0.00 0.00 0.00 65 1020.4
20260830215225 87 230 0.0 1.0 0.00 0.00 0.00 65 1020.3
20260830214720 87 282 0.0 2.0 0.00 0.00 0.00 66 1020.5
20260830214220 87 195 0.0 2.0 0.00 0.00 0.00 65 1020.2
20260830213719 87 212 3.0 5.0 0.00 0.00 0.00 63 1020.4
20260830213219 87 303 0.0 2.0 0.00 0.00 0.00 65 1020.4
20260830212715 87 321 0.0 2.0 0.00 0.00 0.00 66 1020.2
20260830212211 87 315 0.0 2.0 0.00 0.00 0.00 67 1020.1
20260830211706 87 274 2.0 3.0 0.00 0.00 0.00 66 1020.1
20260830211204 87 166 1.0 3.0 0.00 0.00 0.00 67 1020.2
20260830210700 87 274 0.0 2.0 0.00 0.00 0.00 66 1019.9
20260830210159 87 266 2.0 2.0 0.00 0.00 0.00 67 1020.0
20260830205657 87 240 0.0 2.0 0.00 0.00 0.00 67 1020.3
20260830205152 87 241 2.0 4.0 0.00 0.00 0.00 65 1020.2
20260830204647 87 284 0.0 1.0 0.00 0.00 0.00 67 1020.3
20260830204145 87 289 1.0 2.0 0.00 0.00 0.00 65 1020.6
20260830203642 87 284 2.0 3.0 0.00 0.00 0.00 66 1020.4
20260830203137 86 229 0.0 2.0 0.00 0.00 0.00 66 1020.2
20260830202636 86 122 0.0 2.0 0.00 0.00 0.00 66 1020.4
20260830202131 86 247 2.0 3.0 0.00 0.00 0.00 66 1020.8
20260830201626 86 260 2.0 2.0 0.00 0.00 0.00 65 1020.7
20260830201121 87 244 1.0 2.0 0.00 0.00 0.00 66 1020.8
20260830200616 87 255 3.0 4.0 0.00 0.00 0.00 66 1020.7
20260830200115 86 293 0.0 2.0 0.00 0.00 0.00 67 1020.6
20260830195611 86 244 1.0 2.0 0.00 0.00 0.00 67 1020.8
20260830195108 86 254 2.0 2.0 0.00 0.00 0.00 66 1021.0
20260830194603 86 257 1.0 3.0 0.00 0.00 0.00 66 1021.1
20260830194057 86 243 2.0 3.0 0.00 0.00 0.00 67 1021.1
20260830193556 86 263 0.0 1.0 0.00 0.00 0.00 69 1021.2
20260830193051 87 212 0.0 2.0 0.00 0.00 0.00 69 1021.3
20260830192542 87 155 0.0 2.0 0.00 0.00 0.00 68 1021.6
20260830192041 87 293 2.0 2.0 0.00 0.00 0.00 68 1021.7
20260830191537 87 244 0.0 2.0 0.00 0.00 0.00 68 1021.6
20260830191032 87 271 2.0 2.0 0.00 0.00 0.00 69 1021.6
20260830190527 87 266 1.0 3.0 0.00 0.00 0.00 67 1021.8
20260830190022 87 238 2.0 2.0 0.00 0.00 0.00 66 1022.0
20260830185516 87 269 0.0 2.0 0.00 0.00 0.00 67 1021.8
20260830185012 87 299 0.0 2.0 0.00 0.00 0.00 69 1022.0
20260830184510 87 326 2.0 2.0 0.00 0.00 0.00 67 1022.1
20260830183959 86 279 0.0 4.0 0.00 0.00 0.00 66 1022.0
20260830183454 87 326 2.0 2.0 0.00 0.00 0.00 69 1022.4
20260830182949 86 317 3.0 4.0 0.00 0.00 0.00 69 1022.4
20260830182444 86 269 2.0 3.0 0.00 0.00 0.00 68 1022.2
20260830181941 87 258 2.0 3.0 0.00 0.00 0.00 68 1022.3
20260830181437 88 203 1.0 3.0 0.00 0.00 0.00 66 1022.5
20260830180931 87 223 1.0 3.0 0.00 0.00 0.00 67 1022.6
20260830180430 87 177 2.0 3.0 0.00 0.00 0.00 69 1022.7
20260830175929 86 277 2.0 2.0 0.00 0.00 0.00 71 1022.8
20260830175423 85 318 2.0 2.0 0.00 0.00 0.00 74 1022.9
20260830174919 85 292 2.0 2.0 0.00 0.00 0.00 70 1022.8
20260830174414 86 269 0.0 2.0 0.00 0.00 0.00 70 1022.8
20260830173910 85 336 1.0 2.0 0.00 0.00 0.00 71 1022.8
20260830173405 86 327 0.0 2.0 0.00 0.00 0.00 70 1022.9
20260830172900 85 334 3.0 3.0 0.00 0.00 0.00 71 1023.0
20260830172356 85 289 2.0 2.0 0.00 0.00 0.00 72 1023.2
20260830171851 85 148 2.0 2.0 0.00 0.00 0.00 72 1023.2
20260830171342 84 216 3.0 3.0 0.00 0.00 0.00 74 1023.3
20260830170836 84 208 0.0 2.0 0.00 0.00 0.00 74 1023.3
20260830170336 84 286 2.0 3.0 0.00 0.00 0.00 73 1023.3
20260830165834 84 19 0.0 2.0 0.00 0.00 0.00 74 1023.3
20260830165331 84 293 1.0 2.0 0.00 0.00 0.00 73 1023.5
20260830164827 83 298 2.0 2.0 0.00 0.00 0.00 76 1023.5
20260830164323 83 200 1.0 2.0 0.00 0.00 0.00 77 1023.3
20260830163820 83 275 0.0 2.0 0.00 0.00 0.00 75 1023.3
20260830163314 82 221 0.0 3.0 0.00 0.00 0.00 75 1023.6
20260830162809 83 203 0.0 4.0 0.00 0.00 0.00 74 1023.6
20260830162306 82 279 0.0 2.0 0.00 0.00 0.00 75 1023.7
20260830161801 82 131 0.0 3.0 0.00 0.00 0.00 76 1023.6
20260830161259 83 288 1.0 2.0 0.00 0.00 0.00 77 1023.5
20260830160755 82 217 1.0 2.0 0.00 0.00 0.00 76 1023.8
20260830160255 82 309 0.0 1.0 0.00 0.00 0.00 78 1023.8
20260830155751 81 180 2.0 3.0 0.00 0.00 0.00 78 1024.0
20260830155247 81 206 2.0 4.0 0.00 0.00 0.00 79 1024.0
20260830154742 81 62 0.0 3.0 0.00 0.00 0.00 79 1023.8
20260830154237 82 297 2.0 4.0 0.00 0.00 0.00 77 1024.0
20260830153734 82 294 1.0 2.0 0.00 0.00 0.00 78 1023.8
20260830153229 82 242 0.0 2.0 0.00 0.00 0.00 78 1024.1
20260830152727 81 267 2.0 3.0 0.00 0.00 0.00 78 1024.0
20260830152222 80 218 0.0 2.0 0.00 0.00 0.00 78 1024.1
20260830151717 80 44 0.0 5.0 0.00 0.00 0.00 79 1024.2
20260830151216 80 267 0.0 2.0 0.00 0.00 0.00 79 1024.1
20260830150711 79 229 3.0 4.0 0.00 0.00 0.00 81 1024.1
20260830150205 79 315 0.0 2.0 0.00 0.00 0.00 83 1024.2
20260830145700 79 216 2.0 3.0 0.00 0.00 0.00 82 1024.1
20260830145155 80 255 1.0 2.0 0.00 0.00 0.00 82 1024.1
20260830144650 80 282 0.0 3.0 0.00 0.00 0.00 82 1024.1
20260830144146 79 309 0.0 2.0 0.00 0.00 0.00 83 1024.1
20260830143642 79 217 0.0 2.0 0.00 0.00 0.00 85 1024.3
20260830143140 78 237 0.0 2.0 0.00 0.00 0.00 87 1024.3
20260830142636 77 237 0.0 2.0 0.00 0.00 0.00 88 1024.2
20260830142135 77 112 0.0 1.0 0.00 0.00 0.00 88 1024.5
20260830141631 77 262 1.0 3.0 0.00 0.00 0.00 88 1024.2
20260830141126 77 193 0.0 2.0 0.00 0.00 0.00 89 1024.0
20260830140622 77 217 0.0 0.0 0.00 0.00 0.00 90 1024.1
20260830140121 77 306 1.0 2.0 0.00 0.00 0.00 89 1024.3
20260830135616 77 267 2.0 2.0 0.00 0.00 0.00 90 1024.4
20260830135111 76 256 0.0 2.0 0.00 0.00 0.00 91 1024.5
20260830134607 76 290 0.0 0.0 0.00 0.00 0.00 92 1024.7
20260830134102 76 237 0.0 0.0 0.00 0.00 0.00 92 1024.6
20260830133557 76 294 1.0 2.0 0.00 0.00 0.00 92 1024.7
20260830133052 76 329 0.0 1.0 0.00 0.00 0.00 94 1024.8
20260830132548 75 317 1.0 2.0 0.00 0.00 0.00 94 1024.8
20260830132043 75 306 1.0 1.0 0.00 0.00 0.00 95 1025.1
20260830131542 75 333 0.0 2.0 0.00 0.00 0.00 95 1024.9
20260830131037 74 291 1.0 2.0 0.00 0.00 0.00 96 1025.0
20260830130532 74 230 0.0 1.0 0.00 0.00 0.00 96 1024.8
20260830130028 74 216 0.0 1.0 0.00 0.00 0.00 97 1025.0
20260830125522 73 241 1.0 2.0 0.00 0.00 0.00 98 1025.0
20260830125021 73 306 0.0 2.0 0.00 0.00 0.00 99 1024.9
20260830124520 73 249 0.0 0.0 0.00 0.00 0.00 99 1025.2
20260830124016 73 299 0.0 2.0 0.00 0.00 0.00 99 1025.1
20260830123513 72 255 1.0 2.0 0.00 0.00 0.00 99 1025.2
20260830123008 72 239 0.0 1.0 0.00 0.00 0.00 99 1025.3
20260830122505 72 343 0.0 2.0 0.00 0.00 0.00 99 1025.4
20260830122000 72 241 0.0 1.0 0.00 0.00 0.00 99 1025.2
20260830121455 72 266 0.0 1.0 0.00 0.00 0.00 99 1025.1
20260830120955 71 333 1.0 1.0 0.00 0.00 0.00 99 1025.1
20260830120450 71 320 0.0 1.0 0.00 0.00 0.00 99 1024.9
20260830115947 71 166 0.0 0.0 0.00 0.00 0.00 99 1025.1
20260830115443 71 256 1.0 1.0 0.00 0.00 0.00 99 1025.1
20260830114938 71 299 0.0 1.0 0.00 0.00 0.00 99 1025.0
20260830114435 71 296 0.0 1.0 0.00 0.00 0.00 99 1025.1
20260830113934 71 306 0.0 1.0 0.00 0.00 0.00 99 1024.9
20260830113430 71 241 0.0 1.0 0.00 0.00 0.00 99 1024.8
20260830112925 71 352 0.0 1.0 0.00 0.00 0.00 99 1024.8
20260830112421 71 324 0.0 1.0 0.00 0.00 0.00 99 1024.9
20260830111917 71 217 0.0 0.0 0.00 0.00 0.00 99 1024.8
20260830111412 71 183 0.0 0.0 0.00 0.00 0.00 99 1024.8
20260830110908 71 222 0.0 1.0 0.00 0.00 0.00 99 1024.7
20260830110403 71 345 0.0 0.0 0.00 0.00 0.00 99 1024.8
20260830105902 71 240 0.0 1.0 0.00 0.00 0.00 99 1024.8
20260830105359 71 252 0.0 1.0 0.00 0.00 0.00 99 1024.9
20260830104855 71 310 0.0 0.0 0.00 0.00 0.00 99 1024.7
20260830104352 71 307 0.0 1.0 0.00 0.00 0.00 99 1024.5
20260830103850 71 318 0.0 1.0 0.00 0.00 0.00 99 1024.8
20260830103347 71 299 0.0 1.0 0.00 0.00 0.00 99 1024.7
20260830102844 71 297 0.0 2.0 0.00 0.00 0.00 99 1024.6
20260830102340 71 258 0.0 1.0 0.00 0.00 0.00 99 1024.5
20260830101837 71 297 0.0 1.0 0.00 0.00 0.00 99 1024.5
20260830101332 71 347 0.0 2.0 0.00 0.00 0.00 99 1024.3
20260830100831 71 242 0.0 1.0 0.00 0.00 0.00 99 1024.3
20260830100325 71 285 0.0 2.0 0.00 0.00 0.00 99 1024.3
20260830095824 71 320 0.0 1.0 0.00 0.00 0.00 99 1024.3
20260830095320 71 322 0.0 2.0 0.00 0.00 0.00 99 1024.2
20260830094816 71 347 0.0 1.0 0.00 0.00 0.00 99 1024.1
20260830094312 71 308 0.0 1.0 0.00 0.00 0.00 99 1024.1
20260830093808 71 221 0.0 1.0 0.00 0.00 0.00 99 1023.9
20260830093303 70 336 0.0 2.0 0.00 0.00 0.00 99 1024.3
20260830092802 70 308 0.0 1.0 0.00 0.00 0.00 99 1024.1
20260830092259 70 309 0.0 1.0 0.00 0.00 0.00 99 1024.2
20260830091755 70 43 0.0 1.0 0.00 0.00 0.00 99 1024.1
20260830091255 70 315 0.0 1.0 0.00 0.00 0.00 99 1024.1
20260830090754 69 325 0.0 1.0 0.00 0.00 0.00 99 1024.2
20260830090249 69 299 0.0 1.0 0.00 0.00 0.00 99 1024.0
20260830085749 69 315 0.0 1.0 0.00 0.00 0.00 99 1024.1
20260830085244 69 0 0.0 1.0 0.00 0.00 0.00 99 1024.2
20260830084740 69 308 0.0 1.0 0.00 0.00 0.00 99 1024.1
20260830084235 69 316 1.0 1.0 0.00 0.00 0.00 99 1024.2
20260830083730 69 315 0.0 0.0 0.00 0.00 0.00 99 1024.1
20260830083226 69 309 0.0 1.0 0.00 0.00 0.00 99 1024.1
20260830082725 69 11 0.0 1.0 0.00 0.00 0.00 99 1024.1
20260830082221 69 151 0.0 0.0 0.00 0.00 0.00 99 1024.3
20260830081716 69 309 0.0 0.0 0.00 0.00 0.00 99 1024.0
20260830081216 69 13 0.0 0.0 0.00 0.00 0.00 99 1024.1
20260830080710 69 44 0.0 1.0 0.00 0.00 0.00 99 1024.3
20260830080206 69 38 0.0 0.0 0.00 0.00 0.00 99 1024.3
20260830075705 68 352 0.0 1.0 0.00 0.00 0.00 99 1024.3
20260830075201 68 297 0.0 1.0 0.00 0.00 0.00 99 1024.4
20260830074657 68 22 0.0 1.0 0.00 0.00 0.00 99 1024.4
20260830074152 69 69 0.0 1.0 0.00 0.00 0.00 99 1024.4
20260830073648 69 329 0.0 1.0 0.00 0.00 0.00 99 1024.3
20260830073144 68 304 0.0 0.0 0.00 0.00 0.00 99 1024.4
20260830072638 68 309 0.0 0.0 0.00 0.00 0.00 99 1024.4
20260830072138 68 309 0.0 1.0 0.00 0.00 0.00 99 1024.2
20260830071634 69 113 0.0 0.0 0.00 0.00 0.00 99 1024.2
20260830071132 69 326 0.0 0.0 0.00 0.00 0.00 99 1024.1
20260830070627 69 339 0.0 0.0 0.00 0.00 0.00 99 1024.4
20260830070122 69 304 0.0 0.0 0.00 0.00 0.00 99 1024.4
20260830065620 69 304 0.0 0.0 0.00 0.00 0.00 99 1024.4
20260830065120 69 304 0.0 1.0 0.00 0.00 0.00 99 1024.5
20260830064619 69 330 0.0 0.0 0.00 0.00 0.00 99 1024.5
20260830064115 69 304 0.0 1.0 0.00 0.00 0.00 99 1024.5
20260830063608 69 309 0.0 0.0 0.00 0.00 0.00 99 1024.6
20260830063108 69 343 0.0 0.0 0.00 0.00 0.00 99 1024.7
20260830062603 69 322 0.0 0.0 0.00 0.00 0.00 99 1024.6
20260830062103 69 308 0.0 0.0 0.00 0.00 0.00 99 1024.6
20260830061558 69 326 0.0 0.0 0.00 0.00 0.00 99 1024.7
20260830061054 69 329 0.0 1.0 0.00 0.00 0.00 99 1024.8
20260830060550 69 342 0.0 1.0 0.00 0.00 0.00 99 1024.9
20260830060047 70 346 0.0 1.0 0.00 0.00 0.00 99 1024.8
20260830055542 70 322 0.0 0.0 0.00 0.00 0.00 99 1024.7
20260830055038 70 322 0.0 0.0 0.00 0.00 0.00 99 1024.8
20260830054533 70 343 0.0 1.0 0.00 0.00 0.00 99 1024.8
20260830054028 70 339 0.0 2.0 0.00 0.00 0.00 99 1024.6
20260830053524 70 336 0.0 1.0 0.00 0.00 0.00 99 1024.6
20260830053022 70 316 0.0 0.0 0.00 0.00 0.00 99 1024.6
20260830052518 70 336 0.0 1.0 0.00 0.00 0.00 99 1024.7
20260830052012 70 333 0.0 1.0 0.00 0.00 0.00 99 1024.8
20260830051508 70 325 0.0 1.0 0.00 0.00 0.00 99 1024.9
20260830051003 70 306 0.0 1.0 0.00 0.00 0.00 99 1024.9
20260830050457 70 343 0.0 0.0 0.00 0.00 0.00 99 1024.9
20260830045956 70 309 0.0 1.0 0.00 0.00 0.00 99 1024.9
20260830045451 70 325 0.0 1.0 0.00 0.00 0.00 99 1025.0
20260830044950 70 348 1.0 1.0 0.00 0.00 0.00 99 1025.1
20260830044445 70 329 0.0 1.0 0.00 0.00 0.00 99 1025.0
20260830043940 70 326 0.0 1.0 0.00 0.00 0.00 99 1025.1
20260830043435 70 335 1.0 2.0 0.00 0.00 0.00 99 1025.0
20260830042932 70 338 1.0 2.0 0.00 0.00 0.00 99 1024.8
20260830042427 70 341 0.0 1.0 0.00 0.00 0.00 99 1025.0
20260830041926 70 322 0.0 1.0 0.00 0.00 0.00 98 1024.9
20260830041426 71 329 0.0 1.0 0.00 0.00 0.00 98 1024.9
20260830040921 70 322 0.0 1.0 0.00 0.00 0.00 98 1025.0
20260830040417 71 315 0.0 0.0 0.00 0.00 0.00 98 1024.8
20260830035916 70 304 0.0 1.0 0.00 0.00 0.00 98 1024.8
20260830035415 71 315 0.0 1.0 0.00 0.00 0.00 97 1024.6
20260830034911 71 343 0.0 1.0 0.00 0.00 0.00 97 1024.8
20260830034406 71 322 0.0 1.0 0.00 0.00 0.00 97 1024.5
20260830033900 71 330 0.0 1.0 0.00 0.00 0.00 97 1024.6
20260830033354 71 335 0.0 1.0 0.00 0.00 0.00 96 1024.3
20260830032850 71 323 0.0 1.0 0.00 0.00 0.00 96 1024.5
20260830032344 71 352 0.0 1.0 0.00 0.00 0.00 96 1024.4
20260830031839 71 335 0.0 1.0 0.00 0.00 0.00 96 1024.2
20260830031335 71 343 0.0 1.0 0.00 0.00 0.00 95 1024.3
20260830030830 71 349 0.0 2.0 0.00 0.00 0.00 95 1024.2
20260830030326 71 309 0.0 1.0 0.00 0.00 0.00 95 1024.3
20260830025825 71 354 0.0 0.0 0.00 0.00 0.00 94 1024.3
20260830025324 71 322 0.0 1.0 0.00 0.00 0.00 94 1024.4
20260830024819 72 353 0.0 1.0 0.00 0.00 0.00 94 1024.3
20260830024314 72 343 0.0 1.0 0.00 0.00 0.00 93 1024.0
20260830023812 72 349 0.0 1.0 0.00 0.00 0.00 93 1024.2
20260830023311 72 337 0.0 1.0 0.00 0.00 0.00 93 1024.2
20260830022810 72 0 0.0 1.0 0.00 0.00 0.00 92 1024.0